DW8201 Weather Reports


time (UTC)temp
C
wind
direction
speed
KPH
gust
KPH
rain 1hr
cm
rain 24hr
cm
rain mn
cm
humidity
%
barometer
mb
20260503021234 13 59 0.0 0.0 0.00 0.33 0.00 93 1010.4
20260503020728 13 306 0.0 0.0 0.00 0.33 0.00 93 1010.5
20260503020220 13 306 0.0 0.0 0.00 0.33 0.00 92 1010.6
20260503015811 13 306 0.0 0.0 0.00 0.33 0.00 92 1010.7
20260503015307 13 306 0.0 0.0 0.00 0.33 0.00 92 1010.6
20260503014801 13 306 0.0 0.0 0.00 0.33 0.00 92 1010.6
20260503014252 13 306 0.0 0.0 0.00 0.33 0.00 91 1010.7
20260503014142 13 306 0.0 0.0 0.00 0.33 0.00 92 1010.8
20260503013238 13 306 0.0 0.0 0.00 0.33 0.00 91 1010.8
20260503012733 13 306 0.0 0.0 0.00 0.33 0.00 91 1010.9
20260503012627 13 306 0.0 0.0 0.00 0.33 0.00 91 1010.9
20260503012116 13 306 0.0 0.0 0.00 0.33 0.00 91 1011.0
20260503011215 14 306 0.0 0.0 0.00 0.33 0.00 91 1011.0
20260503010710 14 300 0.0 0.0 0.00 0.33 0.00 91 1011.0
20260503010307 14 102 0.0 0.0 0.00 0.33 0.00 91 1011.0
20260503005757 14 102 0.0 1.6 0.00 0.33 0.00 91 1011.0
20260503005251 14 102 0.0 1.6 0.00 0.33 0.00 91 1011.1
20260503004741 14 102 0.0 1.6 0.00 0.33 0.00 91 1011.1
20260503004237 14 102 1.6 4.8 0.00 0.33 0.00 91 1011.0
20260503003731 14 102 3.2 11.3 0.00 0.33 0.00 91 1011.0
20260503003223 14 106 3.2 11.3 0.00 0.33 0.00 91 1011.1
20260503002720 15 108 4.8 14.5 0.00 0.33 0.00 91 1011.0
20260503002209 15 62 4.8 14.5 0.00 0.33 0.00 91 1011.1
20260503001659 15 111 3.2 11.3 0.00 0.33 0.00 92 1011.1
20260503001249 15 152 1.6 6.4 0.00 0.33 0.00 92 1011.1
20260503000743 15 116 1.6 8.0 0.00 0.33 0.00 92 1011.3
20260503000235 15 97 1.6 8.0 0.00 0.33 0.00 92 1011.4
20260502235727 15 100 0.0 8.0 0.00 0.33 0.00 92 1011.4
20260502235222 15 106 1.6 8.0 0.00 0.33 0.00 91 1011.6
20260502234715 15 98 1.6 8.0 0.00 0.33 0.00 91 1011.6
20260502234207 15 75 1.6 8.0 0.00 0.33 0.00 91 1011.7
20260502233656 15 81 1.6 9.7 0.00 0.33 0.00 91 1011.7
20260502233149 15 112 3.2 11.3 0.00 0.33 0.00 91 1011.8
20260502232742 15 93 3.2 11.3 0.00 0.33 0.00 91 1011.8
20260502232233 15 90 3.2 11.3 0.00 0.33 0.00 91 1011.8
20260502231725 15 112 3.2 11.3 0.00 0.33 0.00 91 1011.8
20260502231218 15 92 1.6 8.0 0.00 0.33 0.00 91 1011.8
20260502230708 15 114 1.6 6.4 0.00 0.33 0.00 91 1011.8
20260502230201 15 59 1.6 6.4 0.00 0.33 0.00 91 1011.9
20260502225647 15 17 3.2 6.4 0.00 0.33 0.00 92 1012.0
20260502225640 15 89 1.6 6.4 0.00 0.33 0.00 92 1012.0
20260502225032 15 76 1.6 8.0 0.00 0.33 0.00 92 1012.1
20260502224733 15 81 1.6 8.0 0.00 0.33 0.00 92 1012.0
20260502223722 15 68 3.2 11.3 0.00 0.33 0.00 92 1012.1
20260502223215 15 73 1.6 11.3 0.00 0.33 0.00 92 1012.1
20260502222705 15 64 0.0 6.4 0.00 0.33 0.00 92 1012.2
20260502222158 15 42 0.0 3.2 0.00 0.33 0.00 92 1012.3
20260502221649 15 42 1.6 4.8 0.00 0.33 0.00 92 1012.5
20260502221144 15 42 1.6 4.8 0.00 0.33 0.00 92 1012.6
20260502220733 15 324 0.0 0.0 0.00 0.33 0.00 92 1012.8
20260502220227 15 324 0.0 0.0 0.00 0.33 0.00 92 1012.9
20260502215716 15 324 0.0 0.0 0.00 0.33 0.33 92 1013.0
20260502215205 15 324 0.0 0.0 0.00 0.33 0.33 91 1013.1
20260502215051 15 321 0.0 0.0 0.00 0.33 0.33 91 1013.2
20260502214146 15 321 0.0 0.0 0.00 0.33 0.33 91 1013.2
20260502213640 15 321 0.0 3.2 0.00 0.33 0.33 91 1013.2
20260502213230 15 310 1.6 9.7 0.00 0.33 0.33 91 1013.3
20260502213115 15 288 3.2 9.7 0.03 0.33 0.33 90 1013.3
20260502212211 15 278 3.2 9.7 0.03 0.33 0.33 90 1013.2
20260502211703 15 176 4.8 12.9 0.03 0.33 0.33 90 1012.4
20260502211154 15 177 4.8 12.9 0.03 0.33 0.33 90 1012.3
20260502210646 15 122 3.2 11.3 0.03 0.33 0.33 90 1012.2
20260502210139 15 101 3.2 9.7 0.03 0.33 0.33 90 1012.1
20260502205727 15 133 4.8 9.7 0.03 0.33 0.33 90 1012.2
20260502205218 15 115 3.2 9.7 0.05 0.33 0.33 90 1012.2
20260502205003 15 114 3.2 8.0 0.05 0.33 0.33 89 1012.2
20260502204801 15 111 3.2 8.0 0.05 0.33 0.33 90 1012.1
20260502203654 16 99 3.2 8.0 0.10 0.33 0.33 89 1012.1
20260502203145 16 112 3.2 9.7 0.15 0.33 0.33 89 1012.1
20260502202638 16 91 3.2 11.3 0.15 0.30 0.30 89 1012.1
20260502202133 16 110 1.6 11.3 0.23 0.30 0.30 89 1012.3
20260502201723 16 68 0.0 0.0 0.30 0.30 0.30 88 1012.2
20260502201210 16 68 0.0 0.0 0.30 0.30 0.30 88 1012.3
20260502200702 16 68 0.0 0.0 0.30 0.30 0.30 88 1012.3
20260502200152 16 68 0.0 0.0 0.30 0.30 0.30 87 1012.2
20260502195646 16 43 0.0 0.0 0.30 0.30 0.30 87 1012.1
20260502195135 16 43 0.0 0.0 0.28 0.28 0.28 86 1012.2
20260502194727 16 43 0.0 0.0 0.28 0.28 0.28 85 1012.4
20260502194231 17 43 0.0 0.0 0.25 0.25 0.25 84 1012.6
20260502193720 17 272 0.0 0.0 0.23 0.23 0.23 83 1012.7
20260502193158 17 272 3.2 12.9 0.18 0.18 0.20 81 1012.8
20260502192647 18 272 6.4 17.7 0.15 0.15 0.15 79 1012.9
20260502192137 18 236 8.0 17.7 0.08 0.08 0.08 76 1013.0
20260502191632 19 163 6.4 14.5 0.00 0.00 0.00 69 1012.9
20260502191226 19 233 8.0 14.5 0.00 0.00 0.00 69 1012.8
20260502190717 19 172 8.0 17.7 0.00 0.00 0.00 68 1012.6
20260502190508 19 159 8.0 19.3 0.00 0.00 0.00 68 1012.6
20260502185958 19 158 9.7 19.3 0.00 0.00 0.00 68 1012.6
20260502185147 20 124 9.7 19.3 0.00 0.00 0.00 67 1012.6
20260502184734 20 145 11.3 22.5 0.00 0.00 0.00 65 1012.6
20260502184227 20 135 9.7 22.5 0.00 0.00 0.00 64 1012.6
20260502183819 21 116 8.0 17.7 0.00 0.00 0.00 64 1012.7
20260502183312 21 140 12.9 25.7 0.00 0.00 0.00 66 1012.7
20260502183112 21 101 12.9 29.0 0.00 0.00 0.00 66 1012.7
20260502182251 22 189 9.7 29.0 0.00 0.00 0.00 64 1012.7
20260502181743 23 125 4.8 20.9 0.00 0.00 0.00 62 1012.6
20260502181235 23 108 0.0 9.7 0.00 0.00 0.00 55 1012.5
20260502180727 23 262 0.0 1.6 0.00 0.00 0.00 55 1012.3
20260502180314 23 262 0.0 1.6 0.00 0.00 0.00 54 1012.3
20260502170226 24 256 3.2 9.7 0.00 0.00 0.00 53 1012.3
20260502164250 25 204 4.8 9.7 0.00 0.00 0.00 52 1012.6
20260502163741 25 168 3.2 9.7 0.00 0.00 0.00 52 1012.7
20260502163234 25 253 4.8 14.5 0.00 0.00 0.00 51 1012.7
20260502162830 25 192 3.2 12.9 0.00 0.00 0.00 51 1012.9
20260502162728 25 264 4.8 14.5 0.00 0.00 0.00 50 1012.8
20260502161807 25 272 3.2 12.9 0.00 0.00 0.00 51 1013.0
20260502161300 25 193 3.2 8.0 0.00 0.00 0.00 51 1013.1
20260502160759 25 183 6.4 16.1 0.00 0.00 0.00 51 1013.2
20260502160752 25 214 4.8 11.3 0.00 0.00 0.00 51 1013.2
20260502160448 25 195 6.4 16.1 0.00 0.00 0.00 50 1013.2
20260502152239 25 147 8.0 19.3 0.00 0.00 0.00 50 1013.7
20260502151943 25 166 6.4 16.1 0.00 0.00 0.00 50 1013.8
20260502151741 25 193 8.0 16.1 0.00 0.00 0.00 50 1013.8
20260502150712 25 212 4.8 11.3 0.00 0.00 0.00 52 1014.0
20260502150205 25 235 4.8 11.3 0.00 0.00 0.00 51 1014.1
20260502130643 23 193 6.4 14.5 0.00 0.00 0.00 58 1015.5
20260502130134 23 236 6.4 14.5 0.00 0.00 0.00 59 1015.5
20260502123647 22 175 8.0 16.1 0.00 0.00 0.00 58 1015.7
20260502123139 23 186 9.7 19.3 0.00 0.00 0.00 58 1015.9
20260502122628 23 203 9.7 22.5 0.00 0.00 0.00 58 1016.0
20260502122118 23 193 8.0 22.5 0.00 0.00 0.00 58 1016.0
20260502121616 23 189 9.7 19.3 0.00 0.00 0.00 57 1016.0
20260502121207 23 181 9.7 19.3 0.00 0.00 0.00 57 1016.0
20260502120656 23 199 9.7 17.7 0.00 0.00 0.00 57 1016.0
20260502120651 24 159 9.7 17.7 0.00 0.00 0.00 56 1016.0
20260502115631 24 206 11.3 20.9 0.00 0.00 0.00 56 1016.1
20260502115137 23 154 9.7 22.5 0.00 0.00 0.00 56 1016.1
20260502114615 23 156 8.0 22.5 0.00 0.00 0.00 58 1016.1
20260502114112 23 263 8.0 14.5 0.00 0.00 0.00 56 1016.2
20260502113708 23 178 6.4 14.5 0.00 0.00 0.00 57 1016.2
20260502113159 23 171 6.4 11.3 0.00 0.00 0.00 56 1016.2
20260502112649 23 163 6.4 16.1 0.00 0.00 0.00 56 1016.3
20260502112132 23 163 6.4 16.1 0.00 0.00 0.00 56 1016.4
20260502111628 23 211 4.8 14.5 0.00 0.00 0.00 57 1016.4
20260502111622 23 163 3.2 11.3 0.00 0.00 0.00 57 1016.3
20260502110610 23 216 6.4 14.5 0.00 0.00 0.00 57 1016.5
20260502110603 23 192 8.0 16.1 0.00 0.00 0.00 58 1016.5
20260502110300 23 187 6.4 14.5 0.00 0.00 0.00 58 1016.5
20260502105152 23 197 8.0 16.1 0.00 0.00 0.00 59 1016.6
20260502104645 23 176 6.4 14.5 0.00 0.00 0.00 58 1016.6
20260502104136 23 183 6.4 11.3 0.00 0.00 0.00 58 1016.7
20260502103622 23 201 4.8 11.3 0.00 0.00 0.00 58 1016.7
20260502103117 23 102 6.4 17.7 0.00 0.00 0.00 58 1016.7
20260502102606 23 174 8.0 17.7 0.00 0.00 0.00 59 1016.9
20260502102102 22 176 6.4 12.9 0.00 0.00 0.00 60 1016.9
20260502101602 22 190 4.8 12.9 0.00 0.00 0.00 60 1016.9
20260502101149 22 219 6.4 12.9 0.00 0.00 0.00 60 1017.0
20260502100643 22 213 6.4 12.9 0.00 0.00 0.00 59 1017.1
20260502100530 22 210 4.8 11.3 0.00 0.00 0.00 61 1017.0
20260502091107 21 180 6.4 14.5 0.00 0.00 0.00 62 1017.4
20260502090559 21 170 4.8 12.9 0.00 0.00 0.00 61 1017.4
20260502090205 20 196 4.8 12.9 0.00 0.00 0.00 61 1017.5
20260502071055 17 199 6.4 17.7 0.00 0.00 0.00 64 1017.9
20260502070545 16 201 6.4 17.7 0.00 0.00 0.00 64 1017.9
20260502070146 16 166 4.8 11.3 0.00 0.00 0.00 65 1017.9
20260502065623 16 195 3.2 8.0 0.00 0.00 0.00 66 1017.9
20260502065117 15 195 3.2 8.0 0.00 0.00 0.00 66 1018.0
20260502064607 15 203 4.8 8.0 0.00 0.00 0.00 65 1017.9
20260502064059 15 195 4.8 8.0 0.00 0.00 0.00 65 1017.9
20260502063552 15 176 4.8 8.0 0.00 0.00 0.00 65 1017.8
20260502063044 14 162 3.2 8.0 0.00 0.00 0.00 64 1017.8
20260502062550 13 194 1.6 6.4 0.00 0.00 0.00 65 1017.7
20260502062028 13 148 1.6 4.8 0.00 0.00 0.00 65 1017.7
20260502061619 13 156 1.6 6.4 0.00 0.00 0.00 64 1017.8
20260502061116 13 184 3.2 9.7 0.00 0.00 0.00 64 1017.9
20260502060912 13 170 3.2 9.7 0.00 0.00 0.00 65 1017.9
20260502060105 13 149 3.2 9.7 0.00 0.00 0.00 64 1017.9
20260502055551 13 178 3.2 9.7 0.00 0.00 0.00 64 1017.9
20260502055441 13 185 3.2 6.4 0.00 0.00 0.00 64 1017.8
20260502054535 13 155 3.2 8.0 0.00 0.00 0.00 63 1017.9
20260502054427 13 170 1.6 8.0 0.00 0.00 0.00 63 1017.8
20260502053521 13 158 0.0 0.0 0.00 0.00 0.00 65 1017.7
20260502053016 13 158 0.0 0.0 0.00 0.00 0.00 64 1017.6
20260502052612 12 158 0.0 3.2 0.00 0.00 0.00 63 1017.7
20260502052100 12 158 1.6 4.8 0.00 0.00 0.00 63 1017.6
20260502051554 12 164 1.6 6.4 0.00 0.00 0.00 63 1017.5
20260502051044 12 168 1.6 6.4 0.00 0.00 0.00 63 1017.6
20260502050536 12 150 1.6 6.4 0.00 0.00 0.00 63 1017.7
20260502050030 11 168 1.6 8.0 0.00 0.00 0.00 64 1017.6
20260502045521 11 141 1.6 8.0 0.00 0.00 0.00 64 1017.5
20260502045012 11 137 1.6 4.8 0.00 0.00 0.00 65 1017.5
20260502044503 11 158 3.2 4.8 0.00 0.00 0.00 65 1017.4
20260502044056 11 153 1.6 4.8 0.00 0.00 0.00 65 1017.4
20260502043548 10 136 0.0 4.8 0.00 0.00 0.00 66 1017.5
20260502043040 10 155 0.0 3.2 0.00 0.00 0.00 67 1017.5
20260502042834 10 143 0.0 4.8 0.00 0.00 0.00 67 1017.6
20260502042023 10 130 1.6 6.4 0.00 0.00 0.00 68 1017.5
20260502041517 10 139 1.6 6.4 0.00 0.00 0.00 68 1017.6
20260502041012 10 133 0.0 0.0 0.00 0.00 0.00 68 1017.6
20260502040518 10 183 0.0 0.0 0.00 0.00 0.00 68 1017.6
20260502035958 10 135 0.0 0.0 0.00 0.00 0.00 68 1017.6
20260502035851 10 124 0.0 3.2 0.00 0.00 0.00 68 1017.7
20260502035040 10 131 0.0 3.2 0.00 0.00 0.00 68 1017.8
20260502034826 10 131 0.0 0.0 0.00 0.00 0.00 67 1017.8
20260502034625 10 131 0.0 0.0 0.00 0.00 0.00 68 1017.7
20260502033915 10 131 0.0 0.0 0.00 0.00 0.00 67 1017.9
20260502033011 10 145 0.0 3.2 0.00 0.00 0.00 67 1017.9
20260502032859 10 145 1.6 4.8 0.00 0.00 0.00 67 1018.0
20260502031954 10 168 3.2 6.4 0.00 0.00 0.00 66 1017.9
20260502031548 11 140 3.2 6.4 0.00 0.00 0.00 66 1017.8
20260502031038 11 143 1.6 6.4 0.00 0.00 0.00 66 1017.9
20260502030533 11 140 1.6 6.4 0.00 0.00 0.00 65 1017.9
20260502030027 11 127 3.2 6.4 0.00 0.00 0.00 66 1017.9
20260502025520 11 157 3.2 6.4 0.00 0.00 0.00 65 1017.9
20260502025408 11 134 3.2 4.8 0.00 0.00 0.00 65 1017.9
20260502024504 11 139 1.6 6.4 0.00 0.00 0.00 65 1018.1
20260502023955 11 139 0.0 6.4 0.00 0.00 0.00 65 1018.1
20260502023452 11 150 0.0 0.0 0.00 0.00 0.00 65 1018.1
20260502023044 11 148 0.0 0.0 0.00 0.00 0.00 64 1018.1
20260502022539 11 148 0.0 0.0 0.00 0.00 0.00 64 1018.0
20260502022034 11 148 0.0 0.0 0.00 0.00 0.00 64 1018.1
20260502021821 11 145 1.6 4.8 0.00 0.00 0.00 63 1018.2